Regional Weather Roundup
Issued by NWS

Home | Current Version | Previous Version | Text Only | Print | Product List | Glossary Off
Versions: 1 2 3 4 5 6 7 8 9 10 11 12 13 14 15 16 17 18 19 20 21 22 23 24 25 26 27 28 29 30 31 32 33 34 35 36 37 38 39 40 41 42 43 44 45 46 47 48 49 50

000
ASUS43 KDMX 222001
RWRIA

WEATHER ROUNDUP FOR IOWA
NATIONAL WEATHER SERVICE DES MOINES IA
300 PM CDT SAT APR 22 2017

NOTE: "FAIR" INDICATES FEW OR NO CLOUDS BELOW 12,000 FEET WITH NO
SIGNIFICANT WEATHER AND/OR OBSTRUCTIONS TO VISIBILITY.

* - THESE STATIONS ARE NOT NWS STATIONS...THUS NOT UNDER NWS
QUALITY CONTROL.  THEY ALSO DO NOT REPORT WEATHER SUCH
AS PRECIPITATION OR FOG.

IAZ001>003-012>014-020>022-031>034-043>046-222100-
   NORTHWEST IOWA

CITY           SKY/WX    TMP DP  RH WIND       PRES   REMARKS
CARROLL *      SUNNY     64  30  27 N9G15     30.21F
CHEROKEE *     SUNNY     64  35  33 NE6       30.22F
DENISON *      SUNNY     63  32  31 VRB7G14   30.23F
LE MARS *      SUNNY     66  34  30 N9        30.24F
ORANGE CITY *  SUNNY     63  37  39 W5        30.23F
SHELDON *      SUNNY     64  32  29 VRB6      30.21F
SIOUX CITY     SUNNY     66  35  31 NW5       30.23F
SPENCER        SUNNY     65  34  31 MISG      30.21F
STORM LAKE *   SUNNY     63  32  31 VRB5      30.22F
$$

IAZ055>058-069>071-079>083-090>094-222100-
   SOUTHWEST IOWA

CITY           SKY/WX    TMP DP  RH WIND       PRES   REMARKS
ATLANTIC *     CLOUDY    64  28  25 NE7G15    30.20F
AUDUBON *      SUNNY     64  23  20 N12G18    30.22F
CLARINDA *     CLOUDY    64  32  29 VRB7G15   30.21F
COUNCIL BLFS * SUNNY     64  32  29 NE15G22   30.21F
CRESTON *      PTSUNNY   61  34  36 E10G16    30.21F
HARLAN  *      SUNNY     64  28  25 NE13      30.24F
LAMONI         CLOUDY    62  34  35 NE17      30.17F
RED OAK *      MOSUNNY   64  32  29 NE9G17    30.20F
SHENANDOAH *   MOSUNNY   66  30  26 NE15G24   30.20F
$$

IAZ047>049-059>061-072>074-084-222100-
   CENTRAL IOWA

CITY           SKY/WX    TMP DP  RH WIND       PRES   REMARKS
AMES           SUNNY     65  30  27 N10G17    30.20F
ANKENY *       SUNNY     64  27  24 E9        30.20F
BOONE *        SUNNY     63  34  34 N6G15     30.20F
CHARITON *     CLOUDY    61  28  29 NE14G20   30.18F
DES MOINES     PTSUNNY   67  27  22 E8        30.19F
GRINNELL*      SUNNY     63  24  22 N9G17     30.20F
KNOXVILLE *    SUNNY     63  23  22 NE15G22   30.17F
MARSHALLTOWN   SUNNY     64  29  26 E8        30.19F
NEWTON *       SUNNY     63  28  27 NE13G18   30.18F
PELLA *        SUNNY     64  23  21 NE10G17   30.19F
PERRY *          N/A     65  22  19 NE8G16    30.21S
$$

IAZ004>006-015-016-023>025-035-036-222100-
   NORTH CENTRAL IOWA

CITY           SKY/WX    TMP DP  RH WIND       PRES   REMARKS
ALGONA *       SUNNY     64  34  32 N7        30.21F
CLARION *      SUNNY     64  32  29 N7G14     30.21F
ESTHERVILLE    SUNNY     64  34  32 NW7       30.20F
FORT DODGE *   SUNNY     64  34  32 E9        30.22F
MASON CITY     SUNNY     65  31  28 W6        30.21F
FOREST CITY *    N/A     68  32  26 N5        30.20F
WEBSTER CITY * SUNNY     64  28  25 VRB6      30.19F
IOWA FALLS *     N/A     64  31  29 E5        30.21F
$$

IAZ007>011-017>019-026>030-037>042-050>054-066-222100-
   NORTHEAST IOWA

CITY           SKY/WX    TMP DP  RH WIND       PRES   REMARKS
CEDAR RAPIDS   SUNNY     63  29  27 VRB3      30.18F
CHARLES CITY * SUNNY     63  25  23 CALM      30.21F
CLINTON *      SUNNY     62  35  36 E13G18    30.18F
DECORAH *      SUNNY     63  27  25 VRB5G12   30.19F
DUBUQUE        SUNNY     60  29  30 NE8       30.19F
MONTICELLO *   SUNNY     63  27  25 N9        30.19F
OELWEIN *      SUNNY     63  27  25 VRB3G12   30.20F
WATERLOO       SUNNY     64  27  24 VRB6      30.19F
$$

IAZ064-065-067-068-078-222100-
   EAST CENTRAL IOWA

CITY           SKY/WX    TMP DP  RH WIND       PRES   REMARKS
DAVENPORT      SUNNY     61  33  35 NE14      30.18F
IOWA CITY      SUNNY     65  32  29 E6G20     30.19F
MT. PLEASANT * SUNNY     62  30  29 NE8G23    30.16F
MUSCATINE *    SUNNY     63  32  31 NE14G22   30.17F
QUAD CITIES    SUNNY     63  33  32 NE12G22   30.17F
$$

IAZ062-063-075>077-085>089-095>099-222100-
   SOUTHEAST IOWA

CITY           SKY/WX    TMP DP  RH WIND       PRES   REMARKS
BURLINGTON     SUNNY     63  36  36 NE16G26   30.14F
FAIRFIELD *    CLOUDY    63  32  31 E15G21    30.16F
FORT MADISON * SUNNY     66  36  32 NE16      30.14F
KEOKUK *       SUNNY     61  36  39 NE9G20    30.13F
OSKALOOSA *      N/A     64  28  26 NE14      30.18F
CENTERVILLE *    N/A     63  27  25 NE9G18    30.17F
OTTUMWA        CLOUDY    65  28  24 NE20G26   30.16F
WASHINGTON *   SUNNY     64  28  25 NE15G26   30.18F
$$

ABBREVIATIONS USED IN REMARKS
   TC - TEMPERATURES IN CELSIUS
  WCI - WIND CHILL INDEX
   HX - HEAT INDEX
  VSB - VISIBILITY
$$





USA.gov is the U.S. government's official web portal to all federal, state and local government web resources and services.